Location: Observatoire
(46.1952°N, 5.3391°E)
Time: 22:17:39
(UTC+01:00)

Courier 1B Rocket - Visible Passes

Search period start: 17 February 2026 00:00
Search period end: 27 February 2026 00:00
Orbit: 920 x 1201 km, 28.2° (Epoch: 17 February)

Date Brightness Start Highest point End Pass type
(mag) Time Alt. Az. Time Alt. Az. Time Alt. Az.
17 Feb 7.0 19:57:12 10° S 19:58:44 11° SSE 19:59:54 10° SSE visible
18 Feb 6.9 20:46:43 10° SSW 20:48:54 14° S 20:48:54 14° S visible
19 Feb 6.9 19:46:33 10° SSW 19:49:11 13° S 19:51:32 11° SSE visible
20 Feb 7.1 18:47:11 10° S 18:48:23 11° SSE 18:49:35 10° SSE visible
20 Feb 6.8 20:37:08 10° SSW 20:40:28 15° S 20:40:31 15° S visible
21 Feb 6.9 19:36:35 10° SSW 19:39:39 14° S 19:42:44 10° SE visible
21 Feb 7.2 21:29:00 10° SW 21:29:30 11° SSW 21:29:30 11° SSW visible
22 Feb 6.8 20:27:51 10° SW 20:30:57 14° S 20:32:07 13° S visible
23 Feb 6.9 19:26:57 10° SSW 19:30:08 14° S 19:33:20 10° SSE visible
23 Feb 7.2 21:20:48 10° SSW 21:21:07 10° SSW 21:21:07 10° SSW visible
24 Feb 7.0 20:18:54 10° SW 20:21:26 13° S 20:23:47 10° SSE visible
25 Feb 7.0 19:17:36 10° SW 19:20:37 14° S 19:23:38 10° SSE visible
26 Feb 7.2 20:10:52 10° SSW 20:11:53 10° SSW 20:12:54 10° S visible
